Вернуться в каталог

CZ-6A DEB

АктивенPO
NORAD 54523·DEBRIS·🇨🇳 China

Запущен Nov 11, 2022 с Taiyuan Satellite Launch Center

Loading…

Ближайшие Пролёты (ближайшие 24 часа)

TLE

СвежийSource: Space-Track

Эпоха: Sep 14, 2026, 06:16 UTC

1 54523U 22151KB  26257.26166753  .00031899  00000-0  20433-2 0  9992
2 54523  98.7107  17.2086 0053042 267.5439  91.9712 15.07306799205370

Отслеживайте CZ-6A DEB в реальном времени с AllMySat

Download on the App Store